SCEL

Santiago/Comodoro Arturo Merino Benítez International Airport

Airport
ICAO code
SCEL
IATA Code
SCL
Summary
ICAO Region
CARSAM
ICAO Territory
Location

Pudahuel, Santiago Province

Serving
Santiago
Elevation
1555 ft
Coordinates
33° 23' 47" S , 70° 47' 41" W
KCC
Airport LOS
Parallel Runway Operation
Metar
SCEL 142300Z 22013KT 9999 SCT070 BKN160 BKN180 17/08 Q1014 NOSIG

Description

Santiago Arturo Merino Benítez International Airport, formerly known as Pudahuel Airport is situated 15 km north-west of downtown Santiago, Chile. It is a joint civil/military use airport.

Climatology

Dry-summer subtropical ”Mediterranean" climate (Köppen climate classification Csb) - characterized by warm, dry summers and mild winters.

Runways

Designator Length Width Surface Rops
17L/35R 3750 55 ASP Yes/Yes
17R/35L 3750 45 ASP Yes/Yes

Airport map

Aerial View

SKYbrary Partners:

Safety knowledge contributed by: